BREEZE-KM DEB, 41720

Orbit data source: Space-Track

BREEZE-KM DEB, 41720 is space debris in LEO originally from a launch on Tue, 31 Mar 2015 UTC launched from the Plesetsk Missile And Space Complex (PKMTR). Debris objects in space refer to the collection of defunct objects orbiting the Earth. Examples of debris include non-operational satellites, rocket bodies, and fragments generated from explosions, collisions, or faulty payload assembly.

Loading next visibility...
Identifier
41720, 2015-020H
Orbit
LEO
Country
Flag of CISCIS
Related business
Manufacturer
Khrunichev
Mission
Spacecraft
Bus & Motor
Unknown
Mass
Unknown
Launch date (UTC)
2015-03-31 (11 years ago)
Launch vehicle
Unknown
Launch site
Plesetsk Missile And Space Complex (PKMTR)
Object type
Payload
Rocket body
Debris
Shape & HBR
Unknown shape, 0.1 m
Radar Cross Section
Medium (>0.1 m² and <1 m²)

Expand to show TLE details & history
Last TLE update: 13 hours ago

TLE from 13 hours ago
0 BREEZE-KM DEB
1 41720U 15020H   26174.64791736  .00000078  00000-0  22901-3 0  9997
2 41720  82.4880 149.3415 0228587 224.2353 134.0284 12.91003689519563
Epoch: 2026-06-23T15:33Z
TLE epoch observation values (Epoch: 2026-06-23T15:33:00.059Z)
Latitude
-0.00003°
Longitude
4.27478°
Altitude
1,424.302 km
Speed
7.091 km/s
True Right ascension
09h 57m 21s
True Declination
0° 00' 00"
Sunlit
Object was in daylight at epoch
Visualization orbit readout
Latitude
Unknown
Longitude
Unknown
Altitude
Unknown
Speed
Unknown
Apparent Right ascension
Unknown
Apparent Declination
Unknown
Sunlit
N/A
Visualization observer readout
Local Sidereal Time
15:39:35
Azimuth
Unknown
Elevation
Unknown
Doppler factor
Unknown
Orbital elements
Apogee altitude
1,470.218 km
Perigee altitude
1,119.43 km
Semi-major axis
7,672.961 km
Eccentricity
0.02286
Inclination
82.488°
RAAN
149.3415°
Arg. of periapsis
224.2353°
True anomaly
135.87473°
Mean anomaly
134.0284°
Eccentric anomaly
134.95523°
Mean motion
3.22923 °/min
Orbital period
111.48 mins
BSTAR
0.00022901
Loading maneuver chart data...
Computing Atmospheric mass density...
Loading historical data...
Loading historical data...
Loading historical data...
Loading historical data...
Loading historical data...
Loading historical data...
Loading historical data...

Documentation

Showing up to 5 results
|